Disclaimer

Please do not use the information listed here in-flight or in-navigation, as they are not provided to us by the airports but are provided by volunteers, so they might be outdated.

Search


Regions


Airport information page

Radio informations:
Tower (TWR) - 119.2 MHz
Automatic Terminal Information Service (ATIS) - 125.1 MHz
RDR - 124.4 MHz

Airport informations:
Latitude: 24° 25' 58.70" N
Longitude: 054° 39' 04.10" E
Elevation: 88 feet - 27 meters
Operating hours: 24 hour operations
Operating agency: Civil government, landing fees and diplomatic clearance may be required
Timezone: UTC+4
Fuel: Jet A1, without icing nhibitor.

100/130 MIL Spec, low lead, aviation gasoline (BLUE)

Runway information:
13/31 - 13452 x 148 feet< - >4100 x 45 meters

Recent METARs:
OMAA 171000Z VRB06KT CAVOK 29/12 Q1013 BECMG 28010KT
OMAA 171000Z VRB06KT CAVOK 29/12 Q1013 BECMG 28010KT
OMAA 171100Z 19008KT CAVOK 30/11 Q1012 BECMG 27010KT

Airport on the map: